Погода в Бисере

Погода в Бисере : погода сейчас, прогноз погоды и архив. Всё, что Вы хотите узнать о погоде в Бисере!

Поиск расширенной информации на нашем сайте:

Другие новости

Новости СМИ2

Главная страница сайта

Новости сайта

03.07.2017

Напоминаем, что на нашем специализированном сайте Метеоцентр.Азия вы можете получить высокодетализированные автоматические прогнозы погоды по пунктам России, СНГ и мира в авиационном формате (включающие направление и скорость ветра, видимость, явления погоды, количество и форму облачности, нижнюю и верхнюю границу облачности).

Рекомендуем: подключение оплаты банковскими картами

Погода в Бисере - сегодня

Время (UTC), дата Ветер
(°,м/с) 
Видим.   Явления Облачность Т
(°С)
Тd
(°С)
f(%) Тe
(°С)
Pmin
(гПа)
dP
(гПа)
Po
(мм)
O2
(г/м3)
Тmin Tmax R s Состояние
почвы
21 21.11.17 тихо ()   20000 м    3/0 верхняя 
[Ci fib]
-2.7 -4.3 89 -3  1017.1  -0.6  720  293           
00 22.11.17 130 (ЮВ) 20000 м    ясно 
-6.4 -6.8 97 -6  1017.4  -0.4  719  297           
03 22.11.17 тихо ()   20000 м    3/0 верхняя 
[Ci fib]
-6.9 -7.4 96 -7  1017.6  -0.4  719  298  -7.3      20  равномерный
мокрый или
старый снег
100% 
06 22.11.17 тихо ()   20000 м    ясно 
-6.8 -7.3 96 -7  1017.6  719  298  -9.1         
09 22.11.17 010 (С) 20000 м    ясно 
-3.1 -3.8 95 -4  1016.3  -0.5  719  293           
12 22.11.17 020 (С) 20000 м    8/5 600 м верхняя 
[Sc|Ci fib]
-4.6 -5.2 96 -6  1016.4  -0.2  719  295           
15 22.11.17 030 (СВ) 20000 м    ясно 
-5.3 -5.9 96 -7  1016.4  0.1  719  296    -2.4       
18 22.11.17 010 (С) 20000 м    ясно 
-7.4 -8 95 -10  1016.5  -0.3  719  298           
21 22.11.17 030 (СВ) 20000 м    ясно 
-6.5 -7.1 95 -9  1016.2  -0.1  719  297           
00 23.11.17 030 (СВ) 20000 м    10/0 верхняя 
[Cs]
-5.8 -6.4 96 -8  1015.8  -0.2  718  296           
03 23.11.17 030 (СВ) 20000 м    8/8 2000 м средняя 
[Ac trans]
-5.8 -6.6 94 -8  1015.9  0.1  718  296  -7.5      20  равномерный
сухой снег
100% 
06 23.11.17 040 (СВ) 20000 м    9/9 2000 м средняя 
[Ac trans]
-5.4 -6.3 93 -7  1016.1  0.3  719  296           
09 23.11.17 020 (С) 20000 м    9/8 2000 м средняя, верхняя 
[Ac trans|Ci fib]
-4.1 -5.1 93 -6  1015.6  -0.3  718  294           
12 23.11.17 010 (С) 20000 м    10/3 600 м средняя, верхняя 
[Sc|Ac trans|Ci fib]
-5.5 -6.1 96 -7  1015.8  718  296           
15 23.11.17 020 (С) 20000 м    4/0 верхняя 
[Ci fib]
-6.3 -6.9 95 -8  1016.2  0.1  719  297    -4       
18 23.11.17 020 (С) 20000 м    ясно 
-8.3 -9 95 -8  1016.4  0.1  718  299           
21 23.11.17 320 (СЗ) 20000 м    ясно 
-9.2 -10.4 91 -9  1016.7  0.1  718  301           
00 24.11.17 220 (ЮЗ) 20000 м    ясно 
-4.9 -6.4 89 -4  1015.5  -0.2  718  295           
03 24.11.17 230 (ЮЗ) 20000 м    ясно 
-3.9 -6.4 83 -6  1016  0.6  719  294  -9.7      20  равномерный
сухой снег
100% 
06 24.11.17 310 (СЗ) 20000 м    6/0 верхняя 
[Ci sp]
-3.6 -5.8 85 -3  1017.5  1.5  720  294           
09 24.11.17 330 (СЗ) 20000 м    8/0 верхняя 
[Cs]
-1.9 -3.5 89 -3  1018.3  1.1  721  293           
12 24.11.17 030 (СВ) 20000 м    8/0 верхняя 
[Cs]
-4.4 -4.8 97 -6  1020  722  296           
15 24.11.17 020 (С) 20000 м    4/0 верхняя 
[Ci fib]
-6.9 -7.5 95 -10  1021.8  1.2  722  299    -1.7       
18 24.11.17 010 (С) 20000 м    ясно 
-7.4 -8.2 94 -10  1023.4  1.3  723  300           
21 24.11.17 020 (С) 20000 м    ясно 
-8.9 -9.7 94 -12  1024.6  0.9  724  302           
Время (UTC), дата Ветер
(°,м/с) 
Видим.   Явления Облачность Т
(°С)
Тd
(°С)
f(%) Тe
(°С)
Pmin
(гПа)
dP
(гПа)
Po
(мм)
O2
(г/м3)
Тmin Tmax R s Состояние
почвы

Для получения пояснительной информации подведите курсор к названию столбца.

ПОГОДА в Бисере - архив

Всё, что Вы хотите узнать о погоде в Бисере - удобно и подробно!

Выберите нужную дату (начиная с 1 января 2015* года) и нажмите кнопку "Найти".
Будут отображены архивные сводки погоды по пункту Бисер, начиная с указанной даты.


Отображать данные в формате CSV (для использования в таблицах Excel)


Внимание! Наш архив погоды предназначен исключительно для личного некоммерческого использования в познавательных целях. Если Вам необходимы официальные справки о состоянии погоды (для производственных, юридических, коммерческих и т.п. целей), обращайтесь в органы Росгидромета.

*Примечание: данная дата относится к архиву по метеостанциям СССР (Россия, СНГ, Балтия).
Архив по метеостанциям Зарубежной Европы и Азии (кроме Китая) хранится 10 дней, по другим регионам земного шара (Китай, Африка, Америка, Австралия, Океания) - 1 день.

Бисер - район местоположения метеостанции


Название, широта, долгота, высота метеостанции:
Бисер 58.5°ш. 58.9°д. 463 м над ур. моря [Российская Федерация]

Дополнительная информация

В oтличие oт бoльшинства пoгoдных сайтoв мы публикуем пoдрoбную метеoинфoрмацию в детальнoм прoфессиoнальнoм фoрмате.

Характеристики температуры и влажнoсти вoздуха измеряются на высoте 2 м в тени вдали oт зданий и деревьев.
Скoрoсть ветра измеряется на высoте 10 м (на урoвне рoста челoвека скoрoсть ветра ниже в 1.5-2 раза). Если метеoстанция нахoдится в гoрoде или в лесу, тo скoрoсть ветра занижена на 2-4 м/с пo сравнению с oткрытым местoм. Скoрoсть ветра над акватoриями крупных рек и oзёр, а также на вершинах хoлмoв на 2-5 м/с выше, чем в oбычных услoвиях.
Атмoсфернoе давление в разных тoчках местнoсти мoжет значительнo oтличаться oт давления на метеoстанции, в зависимoсти oт услoвий рельефа (при пoдъёме на 10 м давление пoнижается примернo на 1 мм рт.ст.).